FW0663 Weather Reports


Display with metric or nautical units.
time (UTC)temp
F
wind
direction
speed
MPH
gust
MPH
rain 1hr
in
rain 24hr
in
rain mn
in
humidity
%
barometer
mb
20260904030018 54 87 0.0 0.0 0.00 0.10 0.00 61 1010.6
20260904024520 54 95 0.0 0.0 0.00 0.10 0.00 60 1010.5
20260904023025 55 114 0.0 0.0 0.00 0.10 0.00 58 1010.4
20260904021530 55 114 0.0 0.0 0.00 0.10 0.00 58 1010.3
20260904020017 57 113 0.0 0.0 0.00 0.12 0.00 56 1010.4
20260904014516 60 336 0.0 0.0 0.00 0.12 0.00 42 1010.4
20260904013015 60 336 0.0 0.0 0.00 0.12 0.00 43 1010.4
20260904011521 60 207 0.0 3.0 0.00 0.12 0.00 46 1010.5
20260904010013 60 217 0.0 5.0 0.00 0.14 0.00 43 1010.6
20260904004515 60 194 3.0 6.0 0.00 0.14 0.00 44 1010.6
20260904003011 60 272 1.0 5.0 0.00 0.14 0.00 44 1010.6
20260904001511 60 209 3.0 7.0 0.00 0.14 0.00 43 1010.8
20260904000025 59 163 2.0 6.0 0.00 0.14 0.00 46 1010.8
20260903234509 60 232 1.0 6.0 0.00 0.14 0.00 44 1010.7
20260903233007 59 255 1.0 5.0 0.00 0.14 0.00 47 1010.8
20260903231504 58 147 2.0 6.0 0.00 0.14 0.00 46 1010.9
20260903230008 58 242 0.0 6.0 0.00 0.20 0.00 48 1011.0
20260903224502 58 243 2.0 7.0 0.00 0.20 0.00 48 1011.3
20260903223059 58 213 1.0 6.0 0.00 0.20 0.00 47 1011.5
20260903221558 58 110 2.0 9.0 0.00 0.20 0.00 46 1011.8
20260903220110 58 188 1.0 8.0 0.00 0.23 0.00 46 1011.9
20260903214601 58 275 2.0 9.0 0.00 0.23 0.00 49 1012.1
20260903213058 58 263 3.0 7.0 0.00 0.23 0.00 50 1012.0
20260903211556 57 132 5.0 11.0 0.00 0.23 0.00 47 1012.0
20260903210052 57 201 3.0 10.0 0.00 0.30 0.00 50 1012.1
20260903204552 57 179 4.0 10.0 0.00 0.30 0.00 49 1012.1
20260903203051 57 117 4.0 9.0 0.00 0.30 0.00 49 1012.3
20260903201550 57 242 1.0 7.0 0.00 0.30 0.00 49 1012.4
20260903200049 57 243 1.0 7.0 0.00 0.35 0.00 51 1012.6
20260903194551 56 261 2.0 8.0 0.00 0.35 0.00 55 1012.6
20260903193051 56 236 2.0 7.0 0.00 0.35 0.00 54 1012.7
20260903191546 56 265 1.0 7.0 0.00 0.35 0.00 59 1012.7
20260903190053 55 280 1.0 6.0 0.00 0.35 0.00 59 1012.9
20260903184539 54 229 1.0 7.0 0.00 0.35 0.00 57 1013.1
20260903183039 54 188 0.0 10.0 0.00 0.35 0.00 59 1013.0
20260903181544 54 271 2.0 9.0 0.00 0.35 0.00 62 1013.0
20260903180035 54 99 0.0 5.0 0.00 0.35 0.00 67 1013.1
20260903174536 53 80 1.0 7.0 0.00 0.35 0.00 68 1013.2
20260903173032 53 184 0.0 5.0 0.00 0.35 0.00 71 1013.3
20260903171538 53 128 2.0 4.0 0.00 0.35 0.00 65 1013.2
20260903170034 52 250 1.0 5.0 0.00 0.35 0.00 66 1013.0
20260903164529 52 155 0.0 5.0 0.00 0.35 0.00 70 1013.2
20260903163034 52 198 0.0 2.0 0.00 0.35 0.00 72 1013.2
20260903161525 51 338 0.0 2.0 0.00 0.35 0.00 72 1013.0
20260903160022 50 258 0.0 2.0 0.00 0.35 0.00 72 1013.2
20260903154520 50 149 0.0 2.0 0.00 0.35 0.00 77 1013.1
20260903153018 49 360 0.0 5.0 0.00 0.35 0.00 79 1013.2
20260903151517 47 96 2.0 6.0 0.00 0.35 0.00 80 1013.2
20260903150016 46 105 0.0 2.0 0.00 0.35 0.00 87 1013.3
20260903144517 46 74 0.0 4.0 0.00 0.35 0.00 85 1013.3
20260903143016 44 211 0.0 0.0 0.00 0.35 0.00 88 1013.5
20260903141518 44 211 0.0 2.0 0.00 0.35 0.00 88 1013.5
20260903140020 43 133 0.0 2.0 0.00 0.35 0.00 89 1013.3
20260903134512 44 108 0.0 3.0 0.00 0.35 0.00 88 1013.3
20260903133016 44 104 0.0 2.0 0.00 0.35 0.00 87 1013.1
20260903131510 44 108 0.0 0.0 0.00 0.35 0.00 87 1013.1
20260903130009 44 207 0.0 1.0 0.00 0.35 0.00 85 1013.0
20260903124506 45 119 0.0 2.0 0.00 0.35 0.00 85 1013.0
20260903123011 45 243 0.0 3.0 0.00 0.35 0.00 83 1013.0
20260903121503 45 219 0.0 3.0 0.00 0.35 0.00 83 1012.7
20260903120100 46 131 0.0 2.0 0.00 0.35 0.00 82 1012.8
20260903120003 46 196 0.0 2.0 0.00 0.35 0.00 82 1012.8
20260903114618 47 314 0.0 2.0 0.00 0.35 0.00 80 1013.0
20260903113103 47 155 1.0 4.0 0.00 0.35 0.00 82 1012.8
20260903111614 47 136 2.0 8.0 0.00 0.35 0.00 82 1012.7
20260903110052 48 96 1.0 4.0 0.00 0.35 0.00 84 1012.8
20260903104554 48 105 0.0 2.0 0.00 0.35 0.00 87 1012.7
20260903103053 49 232 2.0 5.0 0.00 0.35 0.00 90 1012.8
20260903101548 49 69 0.0 0.0 0.00 0.35 0.00 91 1012.8
20260903100045 49 41 0.0 0.0 0.00 0.35 0.00 91 1012.8
20260903094553 49 98 0.0 0.0 0.00 0.35 0.00 91 1012.8
20260903093110 49 98 0.0 0.0 0.00 0.35 0.00 91 1012.6
20260903091550 49 98 0.0 0.0 0.00 0.35 0.00 91 1012.5
20260903090043 49 98 0.0 0.0 0.00 0.35 0.00 90 1012.5
20260903084540 50 98 0.0 0.0 0.00 0.35 0.00 90 1012.5
20260903083039 50 189 0.0 0.0 0.00 0.35 0.00 90 1012.5
20260903081540 50 333 0.0 0.0 0.00 0.35 0.00 89 1012.5
20260903080039 50 360 0.0 0.0 0.00 0.35 0.00 89 1012.3
20260903074540 50 72 0.0 2.0 0.00 0.35 0.00 88 1012.2
20260903073035 50 304 0.0 2.0 0.00 0.35 0.00 87 1012.1
20260903071533 50 273 0.0 2.0 0.00 0.35 0.00 87 1011.8
20260903070052 49 316 0.0 2.0 0.00 0.35 0.35 87 1011.8
20260903064530 49 103 0.0 3.0 0.01 0.35 0.35 87 1011.6
20260903063030 50 111 1.0 3.0 0.02 0.35 0.35 86 1011.5
20260903061530 50 271 0.0 4.0 0.03 0.35 0.35 83 1011.7
20260903060029 51 82 1.0 6.0 0.04 0.35 0.35 82 1011.7
20260903054536 52 309 1.0 5.0 0.03 0.34 0.34 78 1011.7
20260903053025 52 318 0.0 6.0 0.03 0.33 0.33 75 1011.3
20260903051524 53 84 1.0 8.0 0.03 0.32 0.32 74 1011.2
20260903050027 53 134 1.0 5.0 0.03 0.31 0.31 76 1011.2
20260903044523 52 73 1.0 5.0 0.04 0.31 0.31 79 1011.2
20260903043026 52 74 1.0 3.0 0.03 0.30 0.30 81 1011.3
20260903041524 52 80 0.0 3.0 0.02 0.28 0.28 84 1011.1
20260903040022 51 51 1.0 5.0 0.01 0.28 0.28 88 1011.0
20260903034526 51 84 1.0 4.0 0.00 0.27 0.27 89 1010.9
20260903033021 50 71 0.0 2.0 0.01 0.27 0.27 90 1011.1
20260903031520 50 92 2.0 6.0 0.02 0.27 0.27 90 1011.0